Temperature
15 14 14 15 15 15 15 15 14 14 14 14 14 14 14 14 13 13 13 13 13 13 13 13 12 12 12 12 12 12 11 11 11 11 10 10 10 10 10 10 10 10 9
14 14 14 14 14 14 14 14 14 14 14 14 14 14 14 14 13 13 13 13 13 13 12 12 12 12 12 12 11 11 11 11 11 10 10 10 9 9 9 9 9 9 9
14 14 14 14 14 14 14 14 14 14 14 14 13 13 13 13 13 13 12 12 12 12 12 12 12 12 11 11 11 11 11 11 10 10 10 9 9 9 9 9 9 9 9
13 14 14 14 14 14 14 14 14 14 14 13 13 13 13 13 13 13 12 12 12 12 12 12 11 11 11 11 11 11 10 10 10 10 9 9 9 9 8 9 9 8 8
12 13 13 14 14 14 14 14 14 14 14 13 13 13 13 13 13 12 12 12 12 11 11 11 11 11 11 11 10 10 10 10 10 9 9 9 9 8 8 8 8 8 8
12 12 13 13 14 14 13 14 14 14 13 13 13 13 13 12 12 12 12 11 11 11 11 11 10 10 10 10 10 10 9 9 9 9 9 8 8 8 8 8 8 8 8
11 12 12 12 13 13 13 13 13 13 13 13 13 12 12 12 12 12 12 11 11 11 11 10 10 10 10 10 9 9 9 9 8 8 8 8 8 8 7 7 7 7 7
11 11 11 12 12 12 12 13 12 12 12 12 12 12 12 12 11 11 11 11 11 11 10 10 10 10 10 9 9 9 9 8 8 8 8 8 7 7 7 7 6 6 6
10 10 11 11 11 12 12 12 12 12 12 12 12 11 11 11 11 11 10 10 10 10 10 10 10 9 9 9 9 8 8 8 8 8 7 7 7 7 7 6 6 5 5
9 9 10 10 10 11 11 11 11 11 11 11 11 11 11 10 10 10 10 10 10 10 9 9 9 9 9 9 8 8 8 8 7 7 7 7 7 6 6 6 6 5 5
8 8 9 9 9 10 10 10 10 10 10 10 10 10 10 10 10 10 9 9 9 9 9 9 9 9 8 8 8 8 7 7 7 7 6 6 6 6 6 5 5 5 4
6 7 8 8 8 9 9 9 9 9 10 10 10 9 9 9 9 9 9 9 9 8 8 8 8 8 8 8 8 7 7 7 7 6 6 6 6 5 5 5 5 4 4
5 6 6 7 7 7 7 8 8 8 9 9 9 9 9 9 8 8 8 8 8 8 7 7 7 7 7 7 7 7 7 6 6 6 6 5 5 5 5 4 4 4 4
4 5 5 6 6 6 6 6 7 7 7 8 8 8 8 8 8 7 7 7 7 7 7 7 7 7 7 7 6 6 6 6 5 5 5 5 5 4 4 4 4 3 3
3 4 4 4 5 5 5 5 6 6 6 7 7 7 7 7 7 6 6 6 6 6 6 6 6 6 6 6 6 5 5 5 5 5 4 4 4 4 3 3 3 3 2
2 3 3 4 4 4 4 5 5 5 5 6 6 6 6 6 6 6 6 6 6 6 6 6 6 6 5 5 5 5 5 4 4 4 4 4 4 3 3 3 2 2 2
2 2 3 3 3 4 4 4 4 4 4 4 5 5 5 5 5 5 5 5 5 5 5 5 5 5 5 5 4 4 4 4 4 3 3 3 3 3 3 2 2 2 2
2 2 2 2 3 3 3 3 3 4 4 4 4 4 4 4 4 4 4 4 4 4 4 4 4 4 4 4 4 4 4 3 3 3 3 3 2 2 2 2 2 2 1
1 1 1 2 2 2 2 3 3 3 3 3 3 3 3 3 3 4 4 4 4 3 3 3 4 3 3 3 3 3 3 3 2 2 2 2 2 1 1 1 1 1 1
1 1 1 1 1 1 2 2 2 2 2 3 3 2 2 3 3 3 3 3 3 3 3 3 3 3 3 2 2 2 2 2 2 2 1 1 1 1 0 0 0 0 0
0 1 1 1 1 1 1 1 2 2 2 2 2 2 2 2 2 2 2 2 2 2 2 2 2 2 2 1 1 1 1 1 1 1 1 1 0 0 -0 -0 -0 -0 -1
-0 -0 0 0 0 0 0 0 1 1 1 1 1 1 1 1 1 1 1 1 1 1 1 1 1 1 1 1 1 1 0 0 0 0 0 -0 -0 -0 -1 -1 -1 -1 -1
-1 -1 -1 -1 -1 -0 -0 0 0 0 0 0 0 0 1 1 1 1 1 0 0 0 0 0 0 0 0 0 0 0 -0 -0 -0 -0 -0 -1 -1 -1 -1 -1 -2 -2 -2
-2 -1 -1 -1 -1 -1 -1 -1 -1 -1 -0 -0 -0 -0 -0 -0 -0 -0 -0 -0 -0 -0 -0 -1 -1 -0 -0 -0 -1 -1 -1 -1 -1 -1 -1 -1 -1 -2 -2 -2 -2 -2 -2
-2 -2 -2 -2 -2 -2 -2 -1 -1 -1 -1 -1 -1 -1 -1 -1 -1 -1 -1 -1 -1 -1 -1 -1 -1 -1 -1 -1 -1 -2 -2 -2 -2 -2 -2 -2 -2 -2 -2 -3 -3 -3 -3
-3 -3 -2 -2 -2 -2 -2 -2 -2 -2 -2 -2 -2 -2 -2 -2 -2 -2 -2 -2 -2 -2 -2 -2 -2 -2 -2 -2 -2 -2 -2 -2 -2 -2 -2 -2 -3 -3 -3 -3 -3 -4 -4
Wind_Speed
8 7 8 9 9 9 10 11 12 11 10 8 7 7 6 5 4 5 8 10 10 10 9 6 6 5 4 4 4 3 3 2 2 2 2 2 2 1 0 0 1 0 1
5 7 8 8 10 11 11 11 12 12 10 8 7 5 5 4 4 4 6 9 9 10 9 7 5 5 4 4 4 3 2 1 2 2 2 1 3 2 2 1 1 0 1
10 10 9 9 10 11 12 12 12 11 10 9 7 6 4 3 3 3 3 5 9 9 9 8 6 5 4 4 4 4 4 2 1 1 3 2 3 2 2 2 1 1 1
8 9 10 10 10 11 10 11 11 11 11 11 10 11 8 7 6 5 4 5 7 8 9 8 7 5 4 4 4 3 3 4 2 1 1 2 3 2 2 3 2 2 3
7 8 9 10 10 10 9 10 10 10 10 10 11 11 7 5 4 5 5 4 4 6 7 8 7 5 4 4 4 4 3 3 3 2 1 1 0 1 2 3 3 3 3
5 6 5 5 6 7 8 9 10 10 10 10 10 10 10 9 8 7 6 5 3 3 5 6 6 5 4 4 4 4 4 3 3 2 2 2 2 2 2 3 3 4 4
5 4 4 3 5 7 8 9 11 10 10 10 10 10 10 10 11 9 8 6 4 3 4 5 4 4 4 4 4 3 3 3 3 3 2 2 3 2 2 2 3 3 3
2 3 4 4 4 6 7 8 9 9 10 10 9 8 9 7 7 7 7 6 5 4 5 5 5 4 4 4 4 2 2 2 3 3 3 2 2 2 2 2 2 3 3
2 2 2 3 3 5 6 8 8 8 8 9 8 8 7 7 7 6 5 4 4 4 5 5 4 4 4 4 3 3 3 3 3 3 3 3 2 2 2 2 3 3 4
3 2 1 1 2 3 4 5 7 7 6 6 7 7 7 7 7 6 6 5 5 5 5 4 4 4 3 3 3 3 2 3 2 2 2 2 2 2 2 2 2 3 5
3 2 2 2 3 4 4 4 5 5 5 5 6 6 6 6 6 6 6 5 5 5 5 5 4 4 4 3 3 3 3 3 2 2 3 3 2 2 2 2 2 3 3
5 5 4 4 4 4 4 4 4 4 4 5 6 6 6 6 6 5 5 5 5 4 4 4 4 3 3 3 4 4 3 3 3 3 3 3 2 3 3 3 3 4 4
6 6 6 5 4 3 3 3 4 4 4 5 6 6 5 5 5 5 5 4 4 4 3 3 3 3 3 3 3 3 3 3 3 3 3 4 3 3 3 3 3 3 4
5 6 5 5 4 3 2 3 3 4 5 5 6 6 5 5 4 4 4 4 4 4 3 3 3 3 3 3 3 3 3 2 2 2 3 3 4 4 4 3 4 3 3
5 4 4 4 4 3 3 3 3 3 5 5 5 4 4 5 5 4 3 3 3 3 3 3 2 2 2 2 3 3 3 3 2 2 2 3 3 4 3 3 3 3 3
4 4 4 4 3 2 2 2 3 3 4 5 5 4 5 5 4 4 3 3 3 2 2 2 2 2 1 2 3 3 2 2 2 2 2 3 3 3 4 4 4 4 4
3 2 2 2 2 2 2 2 2 3 5 5 5 4 5 4 4 3 4 3 2 2 2 1 1 1 1 1 2 2 2 2 2 3 3 3 3 3 3 4 5 5 6
2 1 1 1 2 2 2 3 4 4 5 5 4 4 4 4 3 4 3 2 2 2 1 1 1 1 1 1 1 1 1 1 2 3 3 3 3 3 4 3 3 4 4
2 1 0 0 1 2 3 4 4 4 4 4 3 3 4 4 3 3 2 2 2 2 1 1 1 0 1 1 1 0 1 1 2 2 2 2 3 5 5 2 3 4 4
2 2 1 2 2 2 3 4 3 3 3 3 3 3 3 3 3 2 2 2 2 1 1 1 1 1 1 2 2 1 1 1 1 2 2 3 4 5 5 2 3 4 4
3 2 2 2 2 2 3 4 3 2 1 2 3 3 3 3 3 2 2 2 2 2 1 1 1 1 2 2 2 2 1 2 2 2 2 3 5 5 5 4 3 4 4
3 3 3 3 3 2 3 3 2 1 2 3 3 3 2 2 2 3 2 2 2 2 1 1 1 2 2 2 2 3 2 2 2 2 2 3 5 5 5 4 4 5 4
3 2 2 3 3 3 2 2 1 2 2 3 3 2 2 2 2 2 2 1 1 1 0 1 1 2 2 2 3 3 3 3 2 2 3 4 4 4 3 4 5 5 2
2 2 2 3 3 3 3 2 1 2 2 3 2 2 2 2 2 1 1 1 1 1 1 1 2 2 2 2 1 1 1 2 2 1 2 3 4 3 3 4 3 2 2
2 1 1 1 2 2 2 2 2 2 2 2 2 2 1 1 1 1 0 0 1 2 2 2 2 2 3 3 4 2 1 1 2 1 1 1 1 2 2 2 2 2 2
2 1 1 1 1 2 2 2 2 2 2 2 1 1 1 1 0 0 1 1 1 2 2 2 2 2 3 4 4 4 4 3 2 1 0 1 1 2 2 2 2 2 2
Wind_Direction
216 199 188 176 168 166 165 167 165 165 160 158 158 159 164 162 157 155 155 155 152 150 146 137 136 135 142 150 145 129 123 116 116 89 31 355 0 18 311 206 124 71 10
206 194 186 179 174 172 171 169 167 167 168 169 166 162 155 156 156 149 149 156 153 152 151 141 144 141 143 142 146 131 129 141 130 130 117 343 332 328 327 312 225 276 8
199 193 186 185 178 177 178 176 173 169 166 159 147 135 120 113 130 151 160 158 156 152 150 150 146 147 152 165 169 155 148 164 199 147 145 156 225 282 311 294 286 278 281
200 191 187 185 186 188 183 176 172 168 165 160 160 161 165 171 181 175 168 158 155 154 155 154 153 152 153 166 176 168 162 155 183 223 188 170 163 175 286 306 297 289 277
197 192 192 191 187 183 180 176 170 169 167 166 166 166 167 169 154 150 149 154 151 153 156 156 154 156 159 167 168 168 165 171 180 189 178 161 115 151 183 270 298 303 275
197 187 182 177 177 175 173 172 168 170 168 166 166 169 167 163 158 163 166 166 163 157 157 155 152 155 158 167 172 174 172 182 184 189 188 178 178 193 187 232 270 282 283
183 166 157 158 167 170 173 173 170 171 171 170 171 175 173 171 173 174 174 171 172 176 182 164 156 155 157 156 153 166 178 184 184 197 211 214 219 197 192 215 253 268 283
147 156 163 167 172 176 172 170 172 172 172 174 176 175 172 174 178 175 172 175 180 183 173 164 159 156 152 151 148 162 180 180 192 206 208 220 237 217 208 205 218 275 285
77 126 135 138 152 166 168 167 166 166 169 173 169 168 168 167 166 161 160 162 166 162 156 158 160 157 156 157 157 182 195 189 199 211 215 225 239 238 229 213 205 216 264
37 35 60 100 126 147 147 147 152 159 160 159 165 164 163 161 157 151 156 161 164 159 157 157 162 166 164 164 171 185 193 186 209 214 214 229 240 241 244 231 231 221 236
32 30 32 57 80 97 108 118 130 132 141 148 147 144 150 151 153 157 162 163 158 160 163 162 164 172 176 175 177 190 188 192 214 221 222 235 232 236 250 244 238 239 235
27 28 37 54 68 83 100 110 116 124 134 137 137 140 140 142 146 154 160 157 156 159 160 156 161 166 170 176 181 191 196 202 216 225 225 240 240 241 246 243 241 244 239
30 31 35 45 53 66 89 104 108 112 113 122 127 127 131 134 141 149 149 148 149 151 150 148 161 171 172 178 191 193 199 203 214 221 227 237 231 248 252 248 251 252 256
27 31 31 32 37 51 75 99 99 106 111 112 118 121 123 125 132 136 140 143 148 154 154 161 175 179 174 181 194 198 202 208 215 225 234 242 238 240 243 251 252 258 260
20 29 29 24 28 40 55 81 89 95 108 109 110 115 115 112 108 108 117 129 140 144 151 158 160 161 176 189 190 192 192 201 215 240 250 258 261 262 251 256 255 255 261
2 12 24 21 16 40 69 87 91 94 108 112 110 107 106 104 103 105 107 104 104 117 133 148 154 162 197 185 173 171 186 206 220 248 269 277 279 278 283 280 278 270 262
347 2 7 10 8 30 87 102 106 102 104 105 104 102 104 101 98 101 97 96 86 80 87 106 132 168 218 178 184 181 180 200 226 243 259 283 295 304 276 281 298 296 291
339 348 349 4 19 50 85 98 102 103 104 102 102 106 108 106 103 98 93 84 83 85 82 61 69 78 305 280 213 172 181 221 248 249 249 257 273 275 276 269 285 287 287
321 306 330 40 49 69 94 100 96 98 101 104 106 109 114 116 110 104 98 96 96 81 71 60 71 65 300 322 300 332 194 242 277 280 277 274 269 285 296 289 284 300 302
7 8 39 68 70 60 96 101 98 97 106 115 111 107 111 118 120 114 101 93 102 102 79 44 21 326 305 327 333 337 209 236 275 299 299 304 297 295 299 281 263 279 290
6 18 55 65 51 60 93 101 99 104 114 107 103 99 102 113 117 105 98 102 100 88 71 42 353 342 321 327 327 317 268 233 252 279 294 297 306 303 304 310 286 283 302
9 26 53 45 35 57 100 104 101 90 90 96 96 92 91 96 103 104 94 97 115 109 83 60 346 339 328 325 306 305 297 288 254 256 269 285 309 317 325 325 316 319 327
3 26 58 47 34 43 88 110 85 85 99 104 99 89 81 74 90 115 122 113 114 131 168 213 273 310 322 321 326 318 311 309 294 263 279 300 320 335 340 332 330 334 335
9 24 54 46 27 33 56 65 52 72 98 107 106 100 95 78 64 75 103 127 165 203 237 248 256 277 293 300 302 290 297 317 310 303 313 340 350 348 334 333 337 334 316
353 20 51 34 15 27 38 34 39 76 94 95 92 96 97 101 74 53 57 193 233 235 243 237 232 241 265 274 286 294 277 255 248 301 39 22 353 341 336 336 338 340 339
341 11 26 32 12 20 20 17 32 77 104 98 90 90 113 116 120 53 10 9 332 322 313 283 275 281 283 295 309 316 310 306 300 12 55 318 304 303 310 317 325 330 325
Height
1480 1484 1487 1490 1494 1497 1500 1503 1506 1509 1512 1515 1517 1520 1523 1526 1528 1531 1532 1534 1536 1537 1539 1540 1541 1542 1543 1544 1545 1545 1546 1546 1547 1547 1546 1546 1546 1546 1546 1545 1545 1545 1544
1477 1480 1483 1486 1489 1493 1496 1500 1503 1506 1509 1512 1515 1518 1520 1523 1525 1528 1530 1532 1533 1535 1536 1537 1539 1540 1541 1541 1542 1543 1543 1543 1544 1544 1544 1544 1545 1543 1543 1543 1542 1542 1541
1472 1476 1479 1482 1485 1488 1492 1495 1499 1502 1505 1509 1512 1515 1518 1520 1522 1524 1526 1528 1530 1532 1533 1535 1536 1537 1538 1539 1539 1540 1540 1541 1541 1542 1542 1542 1541 1540 1540 1539 1539 1539 1538
1469 1471 1475 1478 1481 1484 1488 1491 1495 1498 1502 1505 1508 1510 1512 1515 1517 1520 1523 1525 1527 1529 1530 1532 1533 1534 1535 1536 1537 1537 1538 1538 1538 1539 1539 1540 1539 1539 1537 1537 1536 1536 1535
1465 1467 1470 1474 1477 1481 1484 1488 1491 1495 1498 1501 1504 1507 1510 1512 1515 1518 1520 1522 1524 1526 1527 1528 1530 1530 1531 1532 1533 1534 1535 1535 1535 1536 1536 1536 1536 1536 1535 1533 1532 1531 1531
1463 1465 1467 1471 1474 1478 1481 1484 1487 1491 1494 1497 1500 1503 1506 1509 1511 1514 1516 1518 1521 1522 1524 1525 1526 1527 1528 1529 1530 1531 1531 1532 1532 1533 1533 1533 1533 1532 1531 1530 1528 1527 1527
1460 1461 1464 1467 1470 1474 1478 1481 1484 1487 1490 1494 1497 1500 1503 1505 1508 1510 1512 1515 1516 1518 1520 1521 1522 1524 1525 1526 1527 1527 1528 1528 1529 1529 1529 1529 1529 1529 1528 1527 1525 1523 1522
1457 1459 1461 1464 1467 1470 1474 1477 1480 1483 1487 1490 1493 1497 1499 1502 1504 1507 1509 1511 1513 1515 1516 1518 1519 1520 1521 1522 1523 1523 1524 1524 1525 1525 1525 1525 1525 1525 1524 1524 1522 1519 1517
1457 1458 1460 1462 1464 1467 1470 1474 1477 1480 1483 1486 1490 1493 1496 1498 1500 1503 1505 1507 1509 1511 1513 1514 1516 1517 1518 1518 1519 1519 1520 1520 1521 1521 1521 1521 1520 1520 1520 1519 1519 1518 1514
1457 1458 1459 1460 1463 1465 1468 1471 1474 1477 1480 1483 1486 1489 1492 1495 1497 1499 1502 1504 1506 1508 1509 1511 1512 1513 1514 1515 1515 1516 1516 1516 1516 1517 1516 1516 1516 1515 1515 1514 1514 1513 1512
1458 1458 1459 1460 1462 1463 1466 1468 1472 1474 1477 1480 1483 1486 1489 1492 1494 1496 1498 1501 1502 1504 1506 1507 1508 1509 1510 1511 1511 1512 1512 1512 1512 1512 1512 1512 1512 1511 1510 1510 1509 1508 1507
1459 1458 1458 1459 1461 1462 1465 1467 1469 1472 1475 1478 1480 1483 1486 1489 1491 1493 1495 1497 1499 1501 1502 1504 1505 1506 1506 1507 1508 1508 1508 1509 1508 1508 1508 1508 1507 1506 1506 1505 1504 1503 1502
1459 1459 1458 1459 1460 1462 1464 1466 1467 1470 1472 1475 1478 1480 1483 1485 1487 1490 1492 1494 1496 1497 1499 1500 1501 1502 1503 1504 1504 1505 1505 1505 1505 1504 1504 1503 1503 1501 1501 1500 1499 1498 1497
1460 1459 1459 1459 1461 1462 1463 1465 1466 1468 1470 1473 1475 1478 1480 1483 1485 1487 1489 1491 1493 1495 1496 1497 1498 1499 1499 1500 1500 1501 1501 1501 1501 1500 1500 1499 1498 1497 1496 1495 1494 1493 1492
1461 1460 1460 1460 1460 1461 1462 1464 1465 1467 1469 1471 1474 1476 1478 1480 1482 1485 1487 1489 1491 1492 1493 1494 1495 1495 1496 1496 1496 1497 1497 1497 1496 1496 1496 1495 1494 1493 1492 1491 1490 1489 1487
1462 1461 1460 1459 1460 1461 1462 1463 1464 1465 1468 1470 1472 1474 1476 1478 1480 1483 1485 1486 1488 1489 1490 1491 1491 1492 1492 1493 1493 1493 1493 1493 1492 1492 1491 1490 1489 1488 1487 1486 1485 1485 1483
1462 1461 1461 1460 1460 1461 1461 1462 1463 1465 1467 1469 1471 1473 1475 1476 1479 1481 1483 1484 1485 1486 1487 1488 1488 1489 1489 1489 1489 1489 1489 1489 1488 1487 1486 1486 1485 1484 1483 1481 1480 1479 1478
1463 1462 1461 1461 1461 1461 1462 1462 1463 1465 1467 1468 1469 1471 1473 1475 1477 1479 1480 1482 1483 1483 1484 1484 1485 1485 1485 1486 1485 1485 1485 1484 1483 1483 1482 1481 1480 1479 1478 1477 1475 1474 1473
1462 1461 1461 1461 1461 1461 1461 1462 1463 1464 1466 1467 1468 1470 1472 1473 1475 1477 1478 1479 1480 1481 1481 1481 1481 1481 1482 1482 1482 1482 1481 1480 1479 1479 1478 1477 1476 1475 1474 1472 1470 1469 1467
1461 1461 1461 1460 1460 1461 1461 1461 1462 1463 1465 1466 1467 1469 1471 1472 1473 1474 1475 1476 1477 1478 1478 1478 1478 1478 1478 1478 1478 1478 1477 1476 1475 1474 1473 1473 1471 1470 1469 1468 1466 1463 1462
1461 1460 1460 1459 1460 1460 1461 1461 1462 1463 1464 1466 1467 1468 1469 1470 1471 1472 1473 1474 1475 1475 1475 1475 1475 1475 1475 1474 1474 1474 1473 1472 1471 1470 1469 1468 1467 1466 1465 1463 1462 1460 1458
1460 1459 1459 1458 1459 1459 1460 1460 1461 1462 1464 1465 1466 1466 1468 1469 1469 1470 1471 1471 1472 1472 1472 1472 1472 1472 1471 1471 1470 1470 1469 1469 1467 1466 1465 1464 1463 1462 1461 1459 1457 1456 1454
1459 1458 1458 1457 1458 1459 1459 1459 1460 1461 1462 1463 1464 1464 1466 1466 1467 1467 1468 1468 1469 1469 1469 1469 1468 1468 1468 1468 1467 1467 1466 1465 1464 1463 1461 1461 1459 1458 1456 1455 1453 1452 1450
1458 1457 1457 1457 1457 1458 1458 1458 1459 1460 1460 1461 1462 1462 1463 1463 1464 1464 1465 1465 1465 1465 1465 1465 1465 1465 1464 1464 1463 1463 1462 1461 1460 1459 1458 1457 1456 1454 1453 1451 1450 1448 1447
1457 1457 1456 1456 1456 1456 1457 1457 1458 1458 1458 1459 1459 1460 1461 1461 1461 1462 1462 1462 1462 1462 1462 1462 1462 1461 1461 1461 1461 1460 1458 1457 1457 1455 1454 1453 1452 1451 1450 1448 1447 1445 1444
1456 1456 1455 1455 1455 1455 1455 1456 1456 1456 1456 1457 1457 1457 1458 1458 1458 1459 1459 1459 1460 1459 1459 1459 1459 1458 1458 1457 1457 1456 1456 1454 1454 1453 1451 1450 1449 1448 1446 1445 1443 1442 1441